DW2213 Weather Reports


time (UTC)temp
F
wind
direction
speed
knots
gust
knots
rain 1hr
in
rain 24hr
in
rain mn
in
humidity
%
barometer
mb
20260506111804 73 83 5.2 11.3 0.00 0.00 0.00 52 1010.9
20260506111304 74 94 5.2 11.3 0.00 0.00 0.00 54 1010.8
20260506110804 74 36 5.2 10.4 0.00 0.00 0.00 53 1010.8
20260506110305 74 128 5.2 11.3 0.00 0.00 0.00 52 1010.9
20260506105804 73 112 5.2 13.0 0.00 0.00 0.00 52 1010.9
20260506105305 72 43 4.3 12.2 0.00 0.00 0.00 54 1010.9
20260506104805 73 74 4.3 10.4 0.00 0.00 0.00 54 1010.9
20260506104305 72 43 6.1 10.4 0.00 0.00 0.00 55 1011.0
20260506103805 72 71 4.3 7.8 0.00 0.00 0.00 57 1011.0
20260506103304 71 53 5.2 10.4 0.00 0.00 0.00 58 1011.0
20260506102805 71 108 3.5 10.4 0.00 0.00 0.00 56 1011.1
20260506101804 72 111 6.1 10.4 0.00 0.00 0.00 56 1011.2
20260506101305 71 81 3.5 10.4 0.00 0.00 0.00 56 1011.2
20260506100804 71 81 5.2 7.8 0.00 0.00 0.00 56 1011.2
20260506100305 71 71 2.6 7.0 0.00 0.00 0.00 56 1011.2
20260506094805 71 101 1.7 5.2 0.00 0.00 0.00 57 1011.2
20260506094305 70 113 2.6 6.1 0.00 0.00 0.00 58 1011.2
20260506093805 70 148 2.6 7.0 0.00 0.00 0.00 57 1011.1
20260506093304 71 149 1.7 8.7 0.00 0.00 0.00 56 1011.1
20260506092804 71 145 2.6 7.8 0.00 0.00 0.00 56 1011.1
20260506092306 70 93 3.5 7.0 0.00 0.00 0.00 57 1011.0
20260506091805 70 107 2.6 6.1 0.00 0.00 0.00 58 1011.0
20260506091304 70 121 2.6 6.1 0.00 0.00 0.00 59 1011.0
20260506090804 69 96 2.6 7.0 0.00 0.00 0.00 58 1011.0
20260506085804 70 78 2.6 5.2 0.00 0.00 0.00 58 1010.9
20260506085306 70 100 2.6 7.0 0.00 0.00 0.00 58 1010.9
20260506084804 70 103 2.6 7.0 0.00 0.00 0.00 59 1010.9
20260506084304 69 118 4.3 10.4 0.00 0.00 0.00 59 1011.0
20260506083804 69 98 2.6 5.2 0.00 0.00 0.00 59 1011.0
20260506083305 69 96 2.6 4.3 0.00 0.00 0.00 59 1011.0
20260506082805 69 85 1.7 4.3 0.00 0.00 0.00 60 1011.0
20260506081304 68 58 2.6 5.2 0.00 0.00 0.00 62 1011.0
20260506080804 68 74 1.7 4.3 0.00 0.00 0.00 64 1010.9
20260506080304 67 336 1.7 2.6 0.00 0.00 0.00 63 1010.9
20260506072804 65 336 1.7 2.6 0.00 0.00 0.00 69 1010.9
20260506072305 65 324 1.7 5.2 0.00 0.00 0.00 69 1011.0
20260506071805 64 313 1.7 2.6 0.00 0.00 0.00 71 1011.0
20260506071304 64 315 1.7 2.6 0.00 0.00 0.00 72 1011.0
20260506070804 63 314 1.7 2.6 0.00 0.00 0.00 73 1011.0
20260506062305 61 59 0.9 4.3 0.00 0.00 0.00 76 1010.9
20260506061804 61 59 0.0 1.7 0.00 0.00 0.00 76 1010.9
20260506060805 61 59 0.0 1.7 0.00 0.00 0.00 77 1010.8
20260506060304 61 59 0.0 1.7 0.00 0.00 0.00 77 1010.8
20260506051304 60 59 0.0 1.7 0.00 0.00 0.00 81 1010.4
20260506050805 60 59 0.0 0.0 0.00 0.00 0.00 81 1010.4
20260506050304 60 59 0.0 0.0 0.00 0.00 0.00 81 1010.3
20260506044804 61 61 0.0 1.7 0.00 0.00 0.00 79 1010.2
20260506044304 61 61 0.0 0.9 0.00 0.00 0.00 79 1010.1
20260506043804 61 61 0.0 1.7 0.00 0.00 0.00 78 1010.2
20260506043304 61 61 0.0 2.6 0.00 0.00 0.00 78 1010.1
20260506042305 61 61 0.0 0.0 0.00 0.00 0.00 78 1010.1
20260506041804 61 61 0.0 0.9 0.00 0.00 0.00 78 1010.1
20260506041304 61 61 0.9 4.3 0.00 0.00 0.00 77 1010.1
20260506040304 61 61 1.7 2.6 0.00 0.00 0.00 77 1010.1
20260506035804 61 61 0.9 1.7 0.00 0.00 0.00 78 1010.1
20260506035306 61 61 0.9 1.7 0.00 0.00 0.00 78 1010.1
20260506034804 61 61 0.0 1.7 0.00 0.00 0.00 78 1010.1
20260506034305 61 61 0.0 0.9 0.00 0.00 0.00 78 1010.1
20260506033304 61 61 0.0 0.0 0.00 0.00 0.00 78 1010.1
20260506032804 61 61 0.0 0.0 0.00 0.00 0.00 78 1010.2
20260506032306 61 61 0.9 1.7 0.00 0.00 0.00 78 1010.1
20260506031804 61 61 0.9 1.7 0.00 0.00 0.00 77 1010.1
20260506031304 61 61 0.0 0.9 0.00 0.00 0.00 78 1010.1
20260506030803 61 61 0.9 1.7 0.00 0.00 0.00 77 1010.1
20260506025804 62 61 0.0 0.9 0.00 0.00 0.00 77 1010.1
20260506024304 62 61 0.0 0.0 0.00 0.00 0.00 76 1010.2
20260506023804 62 61 0.0 2.6 0.00 0.00 0.00 76 1010.2
20260506023304 62 62 0.9 1.7 0.00 0.00 0.00 75 1010.2
20260506022804 62 61 0.0 0.0 0.00 0.00 0.00 76 1010.2
20260506022306 62 61 0.0 1.7 0.00 0.00 0.00 75 1010.2
20260506021804 62 61 0.0 1.7 0.00 0.00 0.00 76 1010.2
20260506021304 62 61 0.9 1.7 0.00 0.00 0.00 75 1010.2
20260506020805 62 61 0.0 1.7 0.00 0.00 0.00 75 1010.2
20260506015804 63 61 0.9 1.7 0.00 0.00 0.00 75 1010.1
20260506015306 63 61 0.9 1.7 0.00 0.00 0.00 76 1010.1
20260506014804 63 61 0.9 2.6 0.00 0.00 0.00 76 1010.1
20260506014304 63 61 0.9 2.6 0.00 0.00 0.00 76 1010.1
20260506013803 62 56 0.9 2.6 0.00 0.00 0.00 77 1010.1
20260506011804 62 61 1.7 4.3 0.00 0.00 0.00 77 1010.3
20260506011304 62 61 1.7 2.6 0.00 0.00 0.00 78 1010.2
20260506010804 62 61 1.7 2.6 0.00 0.00 0.00 78 1010.2
20260506010304 62 61 1.7 2.6 0.00 0.00 0.00 78 1010.2
20260506005306 63 61 0.9 2.6 0.00 0.00 0.00 77 1010.2
20260506004805 63 61 0.9 1.7 0.00 0.00 0.00 77 1010.3
20260506004304 63 61 0.9 2.6 0.00 0.00 0.00 76 1010.3
20260506003804 64 61 0.9 2.6 0.00 0.00 0.00 75 1010.4
20260506003304 64 61 0.9 2.6 0.00 0.00 0.00 75 1010.4
20260506002804 65 52 1.7 2.6 0.00 0.00 0.00 74 1010.5
20260506002306 65 60 0.9 1.7 0.00 0.00 0.00 74 1010.5
20260506001803 65 60 0.9 1.7 0.00 0.00 0.00 74 1010.5
20260506001304 65 61 0.9 2.6 0.00 0.00 0.00 73 1010.5
20260506000804 65 61 0.0 0.0 0.00 0.00 0.00 73 1010.6
20260505235804 66 61 1.7 2.6 0.00 0.00 0.00 73 1010.6
20260505235305 66 61 1.7 2.6 0.00 0.00 0.00 73 1010.6
20260505234304 66 61 1.7 2.6 0.00 0.00 0.00 73 1010.6
20260505233804 66 61 0.9 2.6 0.00 0.00 0.00 73 1010.6
20260505233304 66 56 2.6 4.3 0.00 0.00 0.00 73 1010.6
20260505232804 66 53 2.6 5.2 0.00 0.00 0.00 73 1010.5
20260505231304 66 53 1.7 6.1 0.00 0.00 0.00 72 1010.5
20260505230304 66 49 3.5 7.8 0.00 0.00 0.00 72 1010.4
20260505225804 66 55 4.3 8.7 0.00 0.00 0.00 72 1010.5
20260505225306 66 30 3.5 7.8 0.00 0.00 0.00 71 1010.5
20260505224803 66 26 4.3 10.4 0.00 0.00 0.00 71 1010.6
20260505224304 67 17 4.3 7.8 0.00 0.00 0.00 71 1010.6
20260505223804 67 25 3.5 6.1 0.00 0.00 0.00 70 1010.6
20260505223304 67 354 2.6 6.1 0.00 0.00 0.00 70 1010.6
20260505222804 66 46 3.5 8.7 0.00 0.00 0.00 70 1010.6
20260505222305 66 57 2.6 10.4 0.00 0.00 0.00 71 1010.6
20260505221804 66 63 3.5 10.4 0.00 0.00 0.00 71 1010.6
20260505220818 66 31 5.2 11.3 0.00 0.00 0.00 72 1010.6
20260505220305 66 13 5.2 8.7 0.00 0.00 0.00 72 1010.5
20260505215804 66 54 5.2 11.3 0.00 0.00 0.00 73 1010.4
20260505215305 66 46 4.3 12.2 0.00 0.00 0.00 73 1010.3
20260505214804 66 40 4.3 12.2 0.00 0.00 0.00 73 1010.3
20260505213804 66 23 4.3 12.2 0.00 0.00 0.00 75 1009.9
20260505213304 66 41 6.1 11.3 0.00 0.00 0.00 75 1009.8
20260505212804 67 41 6.1 17.4 0.00 0.00 0.00 76 1009.7
20260505212305 67 18 7.8 14.8 0.00 0.00 0.00 77 1009.7
20260505211804 67 28 5.2 12.2 0.00 0.00 0.00 77 1009.7
20260505211304 67 7 7.0 15.6 0.00 0.00 0.00 78 1009.6
20260505210804 68 15 8.7 14.8 0.00 0.00 0.00 78 1009.6
20260505210304 68 14 7.8 14.8 0.00 0.00 0.00 77 1009.6
20260505205804 69 11 7.8 15.6 0.00 0.00 0.00 77 1009.5
20260505205305 69 0 6.1 11.3 0.00 0.00 0.00 76 1009.3
20260505204803 69 19 6.1 11.3 0.00 0.00 0.00 76 1009.1
20260505204304 69 17 5.2 13.0 0.00 0.00 0.00 75 1009.0
20260505203804 70 17 6.1 10.4 0.00 0.00 0.00 74 1009.0
20260505203304 71 10 4.3 10.4 0.00 0.00 0.00 72 1008.9
20260505202803 71 24 4.3 12.2 0.00 0.00 0.00 70 1008.8
20260505201304 72 350 2.6 5.2 0.00 0.00 0.00 63 1008.7
20260505200804 72 153 1.7 2.6 0.00 0.00 0.00 63 1008.3
20260505195803 72 153 1.7 4.3 0.00 0.00 0.00 64 1008.1
20260505195305 72 153 0.9 1.7 0.00 0.00 0.00 64 1008.0
20260505194304 72 153 1.7 4.3 0.00 0.00 0.00 62 1007.8
20260505193803 73 148 1.7 4.3 0.00 0.00 0.00 61 1007.7
20260505193304 73 148 3.5 6.1 0.00 0.00 0.00 60 1007.7
20260505192804 73 145 5.2 7.0 0.00 0.00 0.00 60 1007.6
20260505192305 73 148 4.3 7.0 0.00 0.00 0.00 60 1007.5
20260505191804 73 155 4.3 7.0 0.00 0.00 0.00 61 1007.5
20260505191303 73 154 4.3 7.0 0.00 0.00 0.00 61 1007.4
20260505190304 73 158 4.3 7.0 0.00 0.00 0.00 60 1007.3
20260505185804 73 156 2.6 7.0 0.00 0.00 0.00 61 1007.3
20260505185305 74 144 2.6 7.0 0.00 0.00 0.00 61 1007.2
20260505184803 74 141 5.2 7.8 0.00 0.00 0.00 60 1007.2
20260505184303 74 147 3.5 7.0 0.00 0.00 0.00 60 1007.1
20260505183804 74 128 5.2 7.0 0.00 0.00 0.00 57 1007.1
20260505183303 74 148 1.7 2.6 0.00 0.00 0.00 58 1007.1
20260505182804 74 148 0.0 5.2 0.00 0.00 0.00 59 1007.1
20260505182306 75 146 4.3 7.0 0.00 0.00 0.00 59 1007.1
20260505181303 75 156 4.3 7.0 0.00 0.00 0.00 57 1007.1
20260505175803 75 142 7.8 8.7 0.00 0.00 0.00 57 1007.1
20260505175305 76 141 7.8 12.2 0.00 0.00 0.00 57 1007.0
20260505174804 76 146 5.2 10.4 0.00 0.00 0.00 57 1007.0
20260505174305 76 105 5.2 11.3 0.00 0.00 0.00 56 1007.0
20260505173805 76 144 6.1 10.4 0.00 0.00 0.00 55 1007.0
20260505173305 76 83 5.2 10.4 0.00 0.00 0.00 54 1007.0
20260505172806 77 79 7.8 11.3 0.00 0.00 0.00 54 1007.0
20260505171805 76 148 7.0 10.4 0.00 0.00 0.00 54 1007.0
20260505171304 76 153 2.6 7.0 0.00 0.00 0.00 56 1007.0
20260505170805 76 155 4.3 10.4 0.00 0.00 0.00 59 1006.9
20260505170304 76 128 5.2 10.4 0.00 0.00 0.00 61 1006.9
20260505165306 76 142 4.3 8.7 0.00 0.00 0.00 62 1007.1
20260505164805 75 140 7.8 10.4 0.00 0.00 0.00 63 1007.1
20260505164305 75 169 4.3 7.8 0.00 0.00 0.00 63 1007.1
20260505163804 76 150 6.1 10.4 0.00 0.00 0.00 62 1007.2
20260505163305 76 124 5.2 12.2 0.00 0.00 0.00 61 1007.2
20260505162805 77 142 6.1 14.8 0.00 0.00 0.00 60 1007.2
20260505162307 77 122 10.4 13.0 0.00 0.00 0.00 59 1007.1
20260505161804 77 53 7.0 14.8 0.00 0.00 0.00 61 1007.2
20260505161305 76 122 9.6 13.9 0.00 0.00 0.00 61 1007.2
20260505160805 76 16 10.4 17.4 0.00 0.00 0.00 60 1007.2
20260505160304 77 11 8.7 13.9 0.00 0.00 0.00 59 1007.2
20260505153305 78 98 7.8 12.2 0.00 0.00 0.00 55 1007.2
20260505152805 78 114 8.7 17.4 0.00 0.00 0.00 55 1007.3
20260505152305 78 119 10.4 17.4 0.00 0.00 0.00 55 1007.3
20260505151805 78 73 9.6 14.8 0.00 0.00 0.00 55 1007.3
20260505151304 78 94 7.8 13.0 0.00 0.00 0.00 55 1007.3
20260505150805 78 136 8.7 17.4 0.00 0.00 0.00 55 1007.4
20260505150305 78 105 7.8 12.2 0.00 0.00 0.00 53 1007.5
20260505140305 77 116 7.0 11.3 0.00 0.00 0.00 46 1008.1
20260505124804 79 33 7.8 15.6 0.00 0.00 0.00 42 1008.5
20260505124305 80 95 8.7 13.9 0.00 0.00 0.00 43 1008.5
20260505123804 80 128 5.2 10.4 0.00 0.00 0.00 42 1008.5
20260505123304 79 152 5.2 10.4 0.00 0.00 0.00 40 1008.5
20260505122805 78 179 4.3 7.0 0.00 0.00 0.00 44 1008.6
20260505122306 79 166 4.3 7.0 0.00 0.00 0.00 41 1008.7
20260505121804 79 180 0.9 2.6 0.00 0.00 0.00 30 1008.6
20260505120305 80 300 5.2 11.3 0.00 0.00 0.00 30 1008.8
20260505115804 80 242 4.3 10.4 0.00 0.01 0.00 31 1008.8
20260505115305 80 266 5.2 10.4 0.00 0.01 0.00 30 1008.8
20260505114804 79 290 2.6 7.8 0.00 0.01 0.00 31 1008.8
20260505114304 79 248 3.5 7.0 0.00 0.01 0.00 30 1009.0
20260505113804 79 217 2.6 6.1 0.00 0.01 0.00 29 1009.0
20260505113305 79 258 3.5 10.4 0.00 0.01 0.00 30 1009.1
20260505112805 79 349 3.5 11.3 0.00 0.01 0.00 30 1009.1
20260505112305 79 314 4.3 7.8 0.00 0.01 0.00 31 1009.2